TimeCDT,TemperatureF,Dew PointF,Humidity,Sea Level PressureIn,VisibilityMPH,Wind Direction,Wind SpeedMPH,Gust SpeedMPH,PrecipitationIn,Events,Conditions,WindDirDegrees,DateUTC
12:15 AM,50.4,37.0,60,30.06,10.0,East,5.8,-,N/A,,Scattered Clouds,80,2013-05-17 05:15:00
12:35 AM,49.6,36.7,61,30.06,10.0,East,6.9,-,N/A,,Clear,100,2013-05-17 05:35:00
12:55 AM,49.3,36.5,61,30.07,10.0,East,8.1,-,N/A,,Mostly Cloudy,100,2013-05-17 05:55:00
1:15 AM,48.6,36.5,63,30.06,10.0,East,9.2,-,N/A,,Mostly Cloudy,100,2013-05-17 06:15:00
1:35 AM,48.4,36.5,64,30.05,10.0,East,10.4,-,N/A,,Clear,100,2013-05-17 06:35:00
1:55 AM,48.4,36.3,63,30.06,10.0,ESE,9.2,-,N/A,,Clear,110,2013-05-17 06:55:00
2:15 AM,48.0,36.7,65,30.06,10.0,East,5.8,-,N/A,,Clear,90,2013-05-17 07:15:00
2:35 AM,47.8,36.1,64,30.05,10.0,East,10.4,-,N/A,,Clear,90,2013-05-17 07:35:00
2:55 AM,47.5,36.1,65,30.06,10.0,East,9.2,-,N/A,,Clear,100,2013-05-17 07:55:00
3:15 AM,47.5,36.5,66,30.06,10.0,East,8.1,-,N/A,,Scattered Clouds,100,2013-05-17 08:15:00
3:35 AM,47.5,36.5,66,30.05,10.0,East,9.2,-,N/A,,Scattered Clouds,100,2013-05-17 08:35:00
3:55 AM,47.3,36.1,65,30.06,10.0,East,10.4,-,N/A,,Mostly Cloudy,100,2013-05-17 08:55:00
4:15 AM,47.5,35.6,63,30.07,10.0,East,9.2,-,N/A,,Mostly Cloudy,80,2013-05-17 09:15:00
4:35 AM,47.7,35.4,63,30.08,10.0,ESE,5.8,-,N/A,,Mostly Cloudy,110,2013-05-17 09:35:00
4:55 AM,47.5,35.1,62,30.09,10.0,ESE,9.2,-,N/A,,Overcast,120,2013-05-17 09:55:00
5:15 AM,46.9,35.8,65,30.10,10.0,ESE,6.9,-,N/A,,Overcast,120,2013-05-17 10:15:00
5:35 AM,46.6,35.8,66,30.10,10.0,ESE,6.9,-,N/A,,Overcast,110,2013-05-17 10:35:00
5:55 AM,46.4,36.3,68,30.11,10.0,East,6.9,-,N/A,,Overcast,100,2013-05-17 10:55:00
6:15 AM,46.4,36.3,68,30.13,10.0,East,6.9,-,N/A,,Overcast,100,2013-05-17 11:15:00
6:35 AM,46.2,36.5,69,30.14,10.0,ESE,5.8,-,N/A,,Overcast,110,2013-05-17 11:35:00
6:55 AM,46.4,36.5,68,30.14,10.0,East,8.1,-,N/A,,Mostly Cloudy,100,2013-05-17 11:55:00
7:15 AM,46.4,36.9,69,30.14,10.0,East,6.9,-,N/A,,Mostly Cloudy,90,2013-05-17 12:15:00
7:35 AM,46.8,37.2,69,30.14,10.0,East,8.1,-,N/A,,Mostly Cloudy,90,2013-05-17 12:35:00
7:55 AM,47.3,37.4,68,30.14,10.0,East,8.1,-,N/A,,Overcast,100,2013-05-17 12:55:00
8:15 AM,47.8,37.8,68,30.14,10.0,East,8.1,-,N/A,,Overcast,100,2013-05-17 13:15:00
8:35 AM,48.6,37.8,66,30.15,10.0,ESE,6.9,-,N/A,,Overcast,110,2013-05-17 13:35:00
8:55 AM,49.8,38.7,65,30.15,10.0,ESE,6.9,-,N/A,,Overcast,120,2013-05-17 13:55:00
9:15 AM,50.4,38.3,63,30.15,10.0,ESE,8.1,-,N/A,,Overcast,120,2013-05-17 14:15:00
9:35 AM,51.3,38.5,62,30.14,10.0,East,9.2,-,N/A,,Overcast,100,2013-05-17 14:35:00
9:55 AM,52.0,38.8,61,30.14,10.0,East,9.2,-,N/A,,Overcast,100,2013-05-17 14:55:00
10:15 AM,52.5,38.7,59,30.14,10.0,SE,6.9,-,N/A,,Overcast,130,2013-05-17 15:15:00
10:35 AM,53.1,39.2,59,30.14,10.0,SE,10.4,-,N/A,,Scattered Clouds,130,2013-05-17 15:35:00
10:55 AM,53.4,38.8,58,30.13,10.0,ESE,11.5,-,N/A,,Mostly Cloudy,110,2013-05-17 15:55:00
11:15 AM,54.0,38.8,57,30.14,10.0,SE,10.4,-,N/A,,Overcast,130,2013-05-17 16:15:00
11:35 AM,54.1,39.7,58,30.14,10.0,SE,11.5,-,N/A,,Overcast,140,2013-05-17 16:35:00
11:55 AM,54.7,41.0,60,30.13,10.0,ESE,12.7,-,N/A,,Overcast,120,2013-05-17 16:55:00
12:15 PM,55.9,42.1,60,30.12,10.0,ESE,9.2,-,N/A,,Overcast,120,2013-05-17 17:15:00
12:35 PM,56.7,42.4,59,30.13,10.0,SE,10.4,-,N/A,,Mostly Cloudy,140,2013-05-17 17:35:00
12:55 PM,58.6,44.2,59,30.13,10.0,SE,10.4,-,N/A,,Scattered Clouds,140,2013-05-17 17:55:00
1:15 PM,58.6,43.9,58,30.14,10.0,SSE,8.1,-,N/A,,Overcast,150,2013-05-17 18:15:00
1:35 PM,58.8,44.2,58,30.13,10.0,SE,9.2,-,N/A,,Overcast,140,2013-05-17 18:35:00
2:15 PM,60.1,45.7,59,30.10,10.0,SSE,11.5,17.3,N/A,,Overcast,160,2013-05-17 19:15:00
2:35 PM,60.4,46.6,60,30.10,10.0,SE,12.7,17.3,N/A,,Overcast,140,2013-05-17 19:35:00
2:55 PM,61.7,47.5,60,30.10,10.0,SE,10.4,-,N/A,,Overcast,140,2013-05-17 19:55:00
3:15 PM,61.2,47.5,61,30.10,10.0,SSE,10.4,16.1,N/A,,Overcast,150,2013-05-17 20:15:00
3:35 PM,61.5,48.2,62,30.10,10.0,SSE,10.4,-,N/A,,Overcast,160,2013-05-17 20:35:00
3:55 PM,61.0,47.7,62,30.10,10.0,SSE,9.2,-,N/A,,Overcast,160,2013-05-17 20:55:00
4:15 PM,60.1,47.7,64,30.11,10.0,South,10.4,-,N/A,,Overcast,170,2013-05-17 21:15:00
4:35 PM,60.3,48.4,65,30.10,10.0,South,11.5,-,N/A,,Overcast,170,2013-05-17 21:35:00
4:55 PM,59.9,48.6,66,30.10,10.0,SSE,8.1,-,N/A,,Overcast,150,2013-05-17 21:55:00
5:15 PM,59.4,48.4,67,30.10,10.0,SE,9.2,-,N/A,,Overcast,140,2013-05-17 22:15:00
5:35 PM,58.5,47.8,68,30.10,10.0,ESE,10.4,-,N/A,,Overcast,120,2013-05-17 22:35:00
5:55 PM,57.4,48.2,71,30.10,10.0,ESE,10.4,-,N/A,,Overcast,120,2013-05-17 22:55:00
6:15 PM,56.8,47.7,71,30.10,10.0,SE,6.9,-,N/A,,Overcast,140,2013-05-17 23:15:00
6:35 PM,56.3,47.3,72,30.10,10.0,SSE,9.2,-,N/A,,Overcast,150,2013-05-17 23:35:00
6:55 PM,54.9,47.7,77,30.11,10.0,SE,9.2,-,N/A,,Overcast,140,2013-05-17 23:55:00
7:15 PM,54.5,47.3,77,30.11,10.0,ESE,8.1,-,N/A,,Overcast,120,2013-05-18 00:15:00
7:35 PM,53.8,47.7,80,30.11,10.0,ESE,8.1,-,N/A,,Overcast,120,2013-05-18 00:35:00
7:55 PM,52.7,47.7,83,30.11,10.0,ESE,8.1,-,N/A,,Overcast,110,2013-05-18 00:55:00
8:15 PM,52.7,47.3,82,30.10,10.0,East,5.8,-,N/A,,Overcast,90,2013-05-18 01:15:00
8:35 PM,52.3,47.1,82,30.11,10.0,East,5.8,-,N/A,,Overcast,100,2013-05-18 01:35:00
8:55 PM,52.0,46.8,82,30.12,10.0,ESE,9.2,-,N/A,,Overcast,110,2013-05-18 01:55:00
9:15 PM,51.8,46.8,83,30.12,10.0,East,8.1,-,N/A,,Overcast,100,2013-05-18 02:15:00
9:35 PM,51.1,46.4,84,30.13,10.0,ESE,8.1,-,N/A,,Overcast,110,2013-05-18 02:35:00
9:55 PM,50.9,46.4,85,30.14,10.0,East,9.2,-,N/A,,Overcast,100,2013-05-18 02:55:00
10:15 PM,50.5,45.7,83,30.14,10.0,ESE,9.2,-,N/A,,Overcast,110,2013-05-18 03:15:00
10:35 PM,50.2,45.5,84,30.13,10.0,ESE,5.8,-,N/A,,Overcast,110,2013-05-18 03:35:00
10:55 PM,50.0,44.4,81,30.13,10.0,East,10.4,-,N/A,,Overcast,100,2013-05-18 03:55:00
11:35 PM,49.8,43.0,77,30.12,10.0,ESE,6.9,-,N/A,,Overcast,110,2013-05-18 04:35:00
11:55 PM,50.0,43.3,78,30.12,10.0,ESE,8.1,-,N/A,,Overcast,110,2013-05-18 04:55:00